Regional Weather Roundup
Issued by NWS

Home | Current Version | Previous Version | Text Only | Print | Product List | Glossary Off
Versions: 1 2 3 4 5 6 7 8 9 10 11 12 13 14 15 16 17 18 19 20 21 22 23 24 25 26 27 28 29 30 31 32 33 34 35 36 37 38 39 40 41 42 43 44 45 46 47 48 49 50

000
ASUS43 KOAX 030010
RWRNE

WEATHER ROUNDUP FOR NEBRASKA
NATIONAL WEATHER SERVICE OMAHA NE
600 PM CST FRI DEC 02 2016

NOTES: SATELLITE DATA IS BEING USED TO AUGMENT CLOUD COVER ABOVE
       12000 FEET.
       "FAIR" INDICATES FEW OR NO CLOUDS BELOW 12,000 FEET WITH NO
       SIGNIFICANT WEATHER AND/OR OBSTRUCTIONS TO VISIBILITY.

  * THESE STATIONS DO NOT REPORT WEATHER SUCH AS RAIN...SNOW OR FOG.

NEZ001>004-019>022-054>056-030100-
NEBRASKA PANHANDLE

CITY           SKY/WX    TMP DP  RH WIND       PRES   REMARKS
SCOTTSBLUFF    CLOUDY    33  18  53 SE3       30.20R
6HR MIN TEMP:  32; 6HR MAX TEMP:  41;

ALLIANCE       CLOUDY    33  18  53 S5        30.19R WCI  29
6HR MIN TEMP:  31; 6HR MAX TEMP:  43;

CHADRON        CLEAR     29  17  61 W6        30.19R WCI  23
6HR MIN TEMP:  28; 6HR MAX TEMP:  44;

KIMBALL        CLOUDY    31  24  75 S3        30.18S
SIDNEY         CLOUDY    26  19  74 SW5       30.20S WCI  20
6HR MIN TEMP:  26; 6HR MAX TEMP:  39;

$$

NEZ057>060-069>072-079>082-030100-
SOUTHWEST NEBRASKA

CITY           SKY/WX    TMP DP  RH WIND       PRES   REMARKS
NORTH PLATTE   CLEAR     27  19  72 E7        30.24R WCI  19
6HR MIN TEMP:  27; 6HR MAX TEMP:  45;

IMPERIAL       CLOUDY    35  23  61 CALM      30.22S
6HR MIN TEMP:  34; 6HR MAX TEMP:  42;

LEXINGTON      CLEAR     33  25  72 CALM      30.26S
MCCOOK         PTCLDY    35  22  58 NE3       30.24F
6HR MIN TEMP:  35; 6HR MAX TEMP:  43;

OGALLALA       CLEAR     33  23  67 CALM      30.22S
$$

NEZ005>010-023>029-035>040-094-030100-
NORTH CENTRAL NEBRASKA

CITY           SKY/WX    TMP DP  RH WIND       PRES   REMARKS
VALENTINE      CLEAR     31  24  75 NW6       30.24R WCI  25
6HR MIN TEMP:  31; 6HR MAX TEMP:  43;

AINSWORTH      CLEAR     30  24  79 E3        30.24R
BROKEN BOW     CLOUDY    28  21  75 CALM      30.24S
6HR MIN TEMP:  28; 6HR MAX TEMP:  44;

O`NEILL        CLEAR     32  27  80 CALM      30.28R
ORD            CLEAR     26  18  71 CALM      30.26R
6HR MIN TEMP:  26; 6HR MAX TEMP:  43;

THEDFORD       PTCLDY    35  21  56 CALM      30.23S
$$

NEZ041-046>049-061>064-073>077-083>087-030100-
SOUTH CENTRAL NEBRASKA

CITY           SKY/WX    TMP DP  RH WIND       PRES   REMARKS
GRAND ISLAND   PTCLDY    31  25  78 CALM      30.29S
6HR MIN TEMP:  31; 6HR MAX TEMP:  41;

AURORA         CLEAR     33  24  69 CALM      30.28F
HASTINGS       CLEAR     33  24  69 CALM      30.29S
6HR MIN TEMP:  33; 6HR MAX TEMP:  42;

HEBRON         CLOUDY    35  25  69 CALM      30.29F
HOLDREGE       CLEAR     29  21  71 NE3       30.26S
KEARNEY *      CLEAR     36  23  60 CALM      30.28R
YORK           CLEAR     36  25  64 CALM      30.29F
$$

NEZ011>018-030>034-042>045-030100-
NORTHEAST NEBRASKA

CITY           SKY/WX    TMP DP  RH WIND       PRES   REMARKS
NORFOLK        CLEAR     29  24  82 N5        30.30R WCI  24
6HR MIN TEMP:  29; 6HR MAX TEMP:  35;

ALBION         PTCLDY    31  26  80 NE8       30.29R WCI  24
BLAIR          CLOUDY    36  28  74 CALM      30.30S
FREMONT        CLEAR     32  27  83 NW3       30.32R
TEKAMAH        CLOUDY    37  29  72 NW5       30.32R WCI  33
6HR MIN TEMP:  36; 6HR MAX TEMP:  39;

WAYNE          CLOUDY    34  29  84 CALM      30.31R
$$

NEZ050>053-065>068-078-088>093-030100-
SOUTHEAST NEBRASKA

CITY           SKY/WX    TMP DP  RH WIND       PRES   REMARKS
LINCOLN        CLEAR     34  26  72 N3        30.33R
6HR MIN TEMP:  32; 6HR MAX TEMP:  45;

OMAHA EPPLEY   MOCLDY    37  28  70 CALM      30.32R
6HR MIN TEMP:  35; 6HR MAX TEMP:  43;

BEATRICE       CLOUDY    32  26  77 N8        30.30S WCI  25
FALLS CITY       N/A    N/A N/A N/A MISG      30.31R
NEBRASKA CITY  CLEAR     37  25  63 N3        30.32R
PLATTSMOUTH    PTCLDY    35  26  71 CALM      30.32R
$$

NEZ044-045-051>053-067-030100-
OMAHA AREA

CITY           SKY/WX    TMP DP  RH WIND       PRES   REMARKS
OMAHA EPPLEY   MOCLDY    37  28  70 CALM      30.32R
6HR MIN TEMP:  35; 6HR MAX TEMP:  43;

BLAIR          CLOUDY    36  28  74 CALM      30.30S
FREMONT        CLEAR     32  27  83 NW3       30.32R
MILLARD        CLEAR     37  28  72 CALM      30.32S
OFFUTT AFB     CLEAR     29  29  98 N3        30.32R
PLATTSMOUTH    PTCLDY    35  26  71 CALM      30.32R
WAHOO          FAIR      31  26  83 N5        30.33R WCI  26
$$



USA.gov is the U.S. government's official web portal to all federal, state and local government web resources and services.